User: anonymous   Login
Location: Unspecified
(0.0000°N, 0.0000°E)
Time: 14:46:49
(UTC+00:00)
Language:

BUGSAT 1 - Orbit

View from above orbital plane
View from above orbital plane
View from above satellite
View from above satellite

Ground track
Ground track

The orbit data is extracted from the following two-line orbital elements,

1 40014U 14033E   17202.04688304 -.00000063 +00000-0 -10340-6 0  9990
2 40014 097.9550 127.3290 0030782 211.8095 148.1260 14.94774708168262
Epoch (UTC): 21 July 2017 01:07:30
Eccentricity: 0.0030782
inclination: 97.9550°
perigee height: 561 km
apogee height: 604 km
right ascension of ascending node: 127.3290°
argument of perigee: 211.8095°
revolutions per day: 14.94774708
mean anomaly at epoch: 148.1260°
orbit number at epoch: 16826

The dashed part of the orbit path shows where the satellite is in the earth's shadow,  

DLR